Regional Weather Roundup
Issued by NWS Upton, NY

Current Version | Previous Version | Graphics & Text | Print | Product List | Glossary Off
Versions: 1 2 3 4 5 6 7 8 9 10 11 12 13 14 15 16 17 18 19 20 21 22 23 24 25 26 27 28 29 30 31 32 33 34 35 36 37 38 39 40 41 42 43 44 45 46 47 48 49 50

000
ASUS41 KOKX 281305
RWROKX
REGIONAL WEATHER ROUNDUP
NATIONAL WEATHER SERVICE NEW YORK NY
900 AM EDT MON JUL 28 2014

NOTE: "FAIR" INDICATES FEW OR NO CLOUDS BELOW 12,000 FEET WITH NO
SIGNIFICANT WEATHER AND/OR OBSTRUCTIONS TO VISIBILITY.

NYZ071-072-176-178-NJZ106-104-281400-
NEW YORK CITY METRO AREA


CITY           SKY/WX    TMP DP  RH WIND       PRES   REMARKS
CENTRAL PARK   CLOUDY    72  67  84 MISG      29.58S
LAGUARDIA APRT PTSUNNY   74  66  76 S9        29.55S
KENNEDY INTL   CLOUDY    73  69  87 SW10      29.57R
NEWARK/LIBERTY PTSUNNY   73  67  81 SW7       29.56S
BRNX BOT. GARD   N/A     73  64  73 SW7       29.56F
TETERBORO      MOSUNNY   76  67  73 S9        29.55S
$$

NYZ177-179-078>081-281400-
LONG ISLAND NEW YORK

CITY           SKY/WX    TMP DP  RH WIND       PRES   REMARKS
FARMINGDALE    CLOUDY    72  68  87 SW10      29.57S
ISLIP          PTSUNNY   75  67  76 S8        29.56R
SHIRLEY        PTSUNNY   74  67  78 S12       29.58R
WESTHAMPTON    PTSUNNY   74  69  85 S8G17     29.58S
MONTAUK POINT    N/A     74  68  81 S7        29.58S
$$

NYZ052-065-067-281400-
HUDSON VALLEY

CITY           SKY/WX    TMP DP  RH WIND       PRES   REMARKS
WHITE PLAINS   PTSUNNY   71  68  90 VRB6      29.56S
NEWBURGH       NOT AVBL
MONTGOMERY     CLOUDY    72  67  84 SW8       29.55R
POUGHKEEPSIE   CLOUDY    72  68  87 S3        29.53R
ALBANY         CLOUDY    66  63  90 N8        29.54F
$$

NJZ001-105-106-008-010-013-015-019>022-104-281400-
NEW JERSEY

CITY           SKY/WX    TMP DP  RH WIND       PRES   REMARKS
NEWARK/LIBERTY PTSUNNY   73  67  81 SW7       29.56S
TETERBORO      MOSUNNY   76  67  73 S9        29.55S
CALDWELL       CLOUDY    71  66  84 VRB3      29.56S
MORRISTOWN     CLOUDY    73  70  88 SW6       29.57S
SOMERVILLE     CLOUDY    71  67  87 CALM      29.55S
LINDEN         CLOUDY    74  68  82 W7        29.58S
SUSSEX         PTSUNNY   73  66  78 SW7       29.56S
ANDOVER          N/A     68  66  93 VRB5      29.57F
TRENTON        CLOUDY    71  67  87 MISG      29.58R
MILLVILLE      SUNNY     79  70  74 W15       29.59S
ATLANTIC CITY  MOSUNNY   78  72  81 W15G23    29.57F
WRIGHTSTOWN    PTSUNNY   73  72  94 W8        29.56S
TOMS RIVER     CLOUDY    75  72  88 W7        29.58R
BELMAR         CLOUDY    73  70  88 SW10      29.57S
$$

PAZ047>061-062-071-281400-
EASTERN PENNSYLVANIA

CITY           SKY/WX    TMP DP  RH WIND       PRES   REMARKS
PHILADELPHIA   MOSUNNY   76  67  73 W14       29.59R
ALLENTOWN      CLOUDY    70  65  84 SW8       29.58S
SCRANTON       CLOUDY    67  64  90 SW6       29.58R
$$

CTZ002-004>006-009-010-012-RIZ004-006-007-MAZ004-011-015-281400-
SOUTHERN NEW ENGLAND
 IN CT

CITY           SKY/WX    TMP DP  RH WIND       PRES   REMARKS
BRADLEY INTL   CLOUDY    74  69  85 SW8       29.52F
HARTFORD       CLOUDY    73  67  81 S9        29.54R
DANBURY        CLOUDY    70  64  81 SW9       29.58R
WTRBRY/OXFORD  CLOUDY    68  63  83 SW8       29.59R
BRIDGEPORT     PTSUNNY   74  69  85 SW13      29.56R
MERIDEN        CLOUDY    71  67  87 S7        29.56R
NEW HAVEN      CLOUDY    75  68  78 SW5       29.56S
CHESTER        PTSUNNY   72  68  88 S9G16     29.58S
GROTON         CLOUDY    72  69  90 SW8       29.57S
WILLIMANTIC    CLOUDY    72  69  90 S8        29.56S

 IN RI

CITY           SKY/WX    TMP DP  RH WIND       PRES   REMARKS
PROVIDENCE     CLOUDY    74  71  91 S15G25    29.58R
BLOCK ISLAND   CLOUDY    72  66  83 S16       29.59S
WESTERLY       CLOUDY    73  68  84 SW5       29.59R

 IN MA

CITY           SKY/WX    TMP DP  RH WIND       PRES   REMARKS
BOSTON         CLOUDY    68  67  96 E7        29.57F FOG
WORCESTER      LGT RAIN  69  68  96 S10       29.59S FOG
WESTFIELD      CLOUDY    70  68  93 CALM      29.53F FOG
PROVINCETOWN   CLOUDY    72  72 100 CALM      29.62F
NANTUCKET      LGT RAIN  69  66  90 S17       29.64F
$$

ANZ330-335-338-340-345-350-353-355-281400-
COASTAL MARINE OBSERVATIONS


STATION/POSITION TIME  SKY/WX   TEMP    WIND        PRES    VSBY  WAVE
                                AIR SEA DIR/SP/G                  HT/PER
                 (UTC)          (F)     (DEG/KT/KT) (MB)    (MI)  (FT/S)
NY HARB ENTRANCE NOT AVBL
4S FIRE IS       NOT AVBL
23SW MTP         1300            73 71              1000.7          4/ 6
HUDSON CANYON    1300            76 74  220/ 10/ 12 1001.5          3/ 5
EXECUTION ROCKS  1300            73 71  220/ 12/ 14   N/A
WESTERN LI SOUND 1200            71     200/  8/ 10   N/A           0
CENTRAL LI SOUND 1200            72 73  200/ 16/ 19   N/A           1/ 3
EASTERN LI SOUND 1200            71 69  210/ 10/ 14   N/A
ROBBINS REEF     1300            71     210/  7/  9   N/A
$$


>>>>>>>>>>>>>>>>>>>>>>>>>>>> KEY <<<<<<<<<<<<<<<<<<<<<<<<<<<
>                                                          <
>     SKY/WX - SKY CONDITION/PRESENT WEATHER               <
>     TMP    - TEMPERATURE IN FAHRENHEIT                   <
>     DP     - DEWPOINT IN FAHRENHEIT                      <
>     RH     - RELATIVE HUMIDITY IN PERCENT                <
>     WIND   - DIRECTION AND SPEED IN MPH                  <
>     PRES   - MEAN SEA LEVEL PRESSURE IN INCHES OF HG     <
>     WCI    - WIND CHILL INDEX                            <
>     VSB    - VISIBILITY IN MILES                         <
>     HX     - HEAT INDEX                                  <
>     TC     - TEMPERATURE IN CELSIUS                      <
>     VRB    - VARIABLE WIND DIRECTION                     <
>                                                          <
>>>>>>>>>>>>>>>>>>>>>>>>>>>> KEY <<<<<<<<<<<<<<<<<<<<<<<<<<<




USA.gov is the U.S. government's official web portal to all federal, state and local government web resources and services.